Volver al catálogo

STARLINK-31745

ActivoComunicacionesVLEO
NORAD 60329·PAYLOAD·🇺🇸 United States

Lanzado Aug 2, 2024 desde Cape Canaveral Space Force Station

Loading…

Próximos Pases (próximas 24 horas)

TLE

ActualizadoSource: CelesTrak SupGP

Época: Sep 14, 2026, 21:11 UTC

1 60329C 24136A   26257.88312500  .00040078  00000+0  12890-2 0  2572
2 60329  53.1588 275.6711 0001161  86.7657  72.8366 15.31676058    14

Sigue STARLINK-31745 en tiempo real con AllMySat

Download on the App Store